Orbital Elements at Epoch 2459200.5 (2020-Dec-17.0) TDB
Reference: JPL 17 (heliocentric ecliptic J2000)
Element | Value | Uncertainty (1-sigma) | Units |
e | .09085788499668018 | 3.6951e-08 | |
a | 2.194533852388224 | 9.3667e-09 | au |
q | 1.995143148006613 | 8.5913e-08 | au |
i | 1.487284614304859 | 3.447e-06 | deg |
node | 292.0001865175813 | 0.00013777 | deg |
peri | 34.17117956143679 | 0.00013951 | deg |
M | 324.7951471846183 | 2.4096e-05 | deg |
tp | 2459316.621299119642 (2021-Apr-12.12129912) | 7.991e-05 | TDB |
period | 1187.440490158967 3.25 | 7.6023e-06 2.081e-08 | d yr |
n | .3031730878166411 | 1.941e-09 | deg/d |
Q | 2.393924556769834 | 1.0218e-08 | au |
|
| | Orbit Determination Parameters
Additional Information
|